Hourly Data Report for October 17, 2013

All times are specified in Local Standard Time (LST). Add 1 hour to adjust for Daylight Saving Time where and when it is observed.

HALL BEACH A
NUNAVUT

68°46'33.000" N
81°14'33.000" W
9.10 m
2402354
71293
YUX

Download Data

Hourly Data (October 2013)
Hourly Data Report for October 17, 2013
Temp Definition
°C
Dew Point Temp Definition
°C
Rel Hum Definition
%
Wind Dir Definition
10's deg

Wind Spd Definition
km/h
Visibility Definition
km
Stn Press Definition
kPa
Hmdx Definition


Wind Chill Definition


Weather Definition


TIME
00:00 Legend Double Dagger -1.6 -2.4 94 20 21 16.1 100.38   -7 LegendNANA
01:00 Legend Double Dagger -2.0 -3.0 93 18 21 16.1 100.42   -8 LegendNANA
02:00 Legend Double Dagger -1.9 -2.9 93 18 21 16.1 100.44   -8 LegendNANA
03:00 Legend Double Dagger -1.6 -2.6 93 18 17 16.1 100.45   -7 LegendNANA
04:00 Legend Double Dagger -1.6 -2.2 96 17 15 14.5 100.48   -6 LegendNANA
05:00 Legend Double Dagger -2.0 -2.5 96 17 18 16.1 100.50   -7 LegendNANA
06:00 Legend Double Dagger -1.4 -1.8 97 15 21 6.4 100.50   -7 LegendNANA
07:00 Legend Double Dagger -0.9 -1.2 98 17 21 12.9 100.52   -7 LegendNANA
08:00 Legend Double Dagger -0.9 -1.3 97 16 24 16.1 100.54   -7 LegendNANA
09:00 Legend Double Dagger -0.9 -1.2 98 14 26 4.8 100.54   -7 LegendNANA
10:00 Legend Double Dagger -1.2 -1.7 96 13 21 16.1 100.54   -7 LegendNANA
11:00 Legend Double Dagger -0.7 -1.3 96 13 26 11.3 100.51   -7 LegendNANA
12:00 Legend Double Dagger -0.8 -1.2 97 13 28 4.0 100.49   -7 LegendNANA
13:00 Legend Double Dagger -0.8 -1.2 97 13 35 4.0 100.47   -8 LegendNANA
14:00 Legend Double Dagger -0.7 -1.1 97 13 37 4.8 100.44   -8 LegendNANA
15:00 Legend Double Dagger -0.7 -1.1 97 14 37 4.8 100.42   -8 LegendNANA
16:00 Legend Double Dagger -0.6 -1.0 97 14 35 4.8 100.43   -8 LegendNANA
17:00 Legend Double Dagger -0.6 -1.0 97 14 37 6.4 100.43   -8 LegendNANA
18:00 Legend Double Dagger -0.6 -1.0 97 14 33 6.4 100.45   -8 LegendNANA
19:00 Legend Double Dagger -0.6 -1.0 97 14 33 6.4 100.45   -8 LegendNANA
20:00 Legend Double Dagger -0.6 -1.0 97 13 32 4.8 100.44   -7 LegendNANA
21:00 Legend Double Dagger -0.8 -1.2 97 12 30 6.4 100.40   -8 LegendNANA
22:00 Legend Double Dagger -1.0 -1.4 97 11 28 4.8 100.36   -8 LegendNANA
23:00 Legend Double Dagger -0.9 -1.3 97 11 32 3.2 100.28   -8 LegendNANA

Notes on Data Quality.

Legend

  • E = Estimated
  • M = Missing
  • NA = Not Available
  • ‡ = Partner data that is not subject to review by the National Climate Archives
Date modified: